Vorticity
11 11 11 9 -6 9 8 6 9 8 5 3 8 -11 2 -7 4 4 17 10 11 7 4 4 4 5 4 4 5 4 5 6 6 6 4 5 5 4 3 3 4 4 4 4 5 6 6 7 6
10 12 10 10 8 7 4 16 3 2 6 11 9 -5 8 11 21 15 7 9 9 8 5 4 5 5 5 4 4 4 4 4 4 5 5 4 5 4 4 4 4 4 5 5 5 5 5 6 7
10 11 0 8 10 14 10 1 4 7 2 11 2 2 1 12 7 2 4 4 7 8 9 5 5 5 5 4 4 4 4 4 4 4 5 5 4 4 4 4 4 4 4 5 5 4 5 5 5
10 8 6 6 13 9 9 3 4 8 9 7 6 2 9 6 4 5 5 7 6 7 11 11 6 5 5 4 3 4 4 4 4 4 5 5 5 4 4 4 4 4 4 4 4 5 5 6 5
10 5 5 7 6 9 7 12 -0 2 8 5 2 -0 10 9 7 6 5 6 6 5 8 10 10 6 5 4 3 4 4 4 5 5 5 5 5 5 4 4 4 3 3 3 4 4 4 5 6
4 5 10 4 5 13 12 4 6 -1 4 6 5 8 3 17 6 3 5 5 8 6 8 9 9 8 5 4 3 3 4 4 4 5 5 5 4 5 5 4 4 4 3 4 3 3 3 4 4
7 5 10 8 9 3 3 2 3 5 2 2 1 6 9 8 4 7 7 6 6 6 6 8 8 9 8 5 4 4 4 4 4 5 4 4 4 4 5 4 5 5 4 3 3 3 3 3 3
8 3 10 3 5 3 20 2 1 -3 5 2 5 8 6 16 9 5 12 11 6 3 5 8 7 7 8 8 5 4 4 4 4 4 4 4 3 3 3 4 4 4 5 5 5 4 3 3 3
9 7 11 6 7 5 16 -6 8 1 1 3 2 7 -1 9 7 12 16 10 6 7 -4 10 9 6 6 6 5 4 4 2 3 3 3 2 2 3 3 3 3 4 4 5 5 5 5 5 5
5 7 13 7 5 6 17 0 -1 1 4 4 3 10 -1 5 8 7 6 8 7 3 1 6 6 8 5 7 4 3 2 3 3 3 3 3 3 4 4 4 4 4 4 4 5 5 5 6 6
7 5 10 15 7 7 11 16 7 7 6 5 6 5 4 7 7 4 -1 4 3 11 15 2 2 5 7 7 7 6 5 4 3 3 4 4 3 3 4 4 4 4 4 4 5 5 5 5 6
6 9 13 9 7 4 -6 9 2 4 5 13 4 5 5 5 7 6 5 7 5 7 1 2 4 7 9 8 7 5 5 7 6 4 6 8 7 5 4 4 6 7 7 6 6 6 5 4 8
3 1 5 9 12 7 2 3 -4 11 3 11 1 1 5 2 4 9 3 3 2 4 1 3 5 5 8 7 6 7 3 6 -1 2 7 9 10 8 6 5 6 6 7 7 6 5 5 5 1
-4 -1 4 6 13 12 17 12 4 9 -1 8 3 3 3 4 4 6 5 9 6 2 3 5 7 7 9 7 8 7 5 2 3 10 11 12 11 9 7 6 10 12 13 13 13 15 11 9 9
3 4 14 6 4 8 7 13 8 23 7 -1 2 2 -1 -2 -0 -0 12 8 8 1 0 3 9 12 10 10 8 5 4 6 10 12 11 12 11 11 12 13 15 14 13 8 6 6 6 8 6
6 11 9 13 9 11 8 -1 14 19 18 21 6 10 6 3 3 2 5 8 6 1 1 4 2 16 13 9 8 9 7 7 9 10 9 8 8 8 9 9 7 4 5 7 6 5 3 -0 -0
14 3 0 1 15 8 4 3 12 8 13 17 17 12 8 12 5 4 5 5 13 4 2 2 5 11 9 6 7 9 11 10 9 7 7 9 11 10 7 5 6 8 6 3 2 1 -2 -0 -1
1 3 10 1 1 16 4 1 -2 5 1 15 16 13 9 5 0 6 4 5 8 10 4 7 1 5 7 4 6 6 2 12 13 10 9 11 8 7 6 6 4 3 2 1 -0 -0 1 1 3
-1 9 5 5 -1 7 5 7 -3 1 4 6 9 5 11 18 11 6 4 7 5 9 6 5 1 8 3 2 3 2 4 7 13 10 9 6 6 6 5 5 3 2 1 1 1 0 1 3 4
1 1 3 7 -1 -1 2 8 18 5 8 -1 7 8 7 14 15 8 10 6 5 4 6 4 4 1 -0 2 1 7 2 4 11 10 7 6 6 5 4 2 1 0 2 2 0 1 3 1 6
3 -1 1 1 4 -0 -0 -0 5 11 23 22 12 7 17 16 5 14 20 10 8 5 4 4 3 3 5 3 1 6 5 5 8 9 7 6 4 4 3 1 0 1 2 3 1 3 5 5 11
7 10 13 3 3 -4 5 5 9 6 12 -0 -5 14 14 25 10 15 23 20 10 5 6 9 7 4 5 9 -1 7 7 4 5 7 8 4 3 2 1 1 0 3 3 2 5 9 8 11 10
-0 10 22 13 14 13 13 18 7 33 17 13 21 1 3 19 16 16 17 4 4 5 9 11 8 5 4 5 3 10 7 5 7 7 4 5 5 3 0 1 4 4 2 5 7 5 8 9 13
11 -5 13 17 18 47 19 -14 19 14 -4 2 5 1 8 16 33 10 14 -4 5 6 7 6 5 3 5 2 7 7 9 5 8 5 5 3 2 1 2 4 4 1 5 8 6 8 12 14 18
18 9 2 12 11 -27 15 39 -41 -9 21 16 -5 6 4 -12 28 17 10 17 6 7 5 2 3 3 4 6 6 9 7 6 5 6 3 3 1 2 5 4 3 6 5 7 9 12 15 15 13
-2 1 -55 6 17 -1 9 -18 24 25 32 20 10 17 3 11 30 32 5 5 4 12 6 5 6 4 7 7 8 8 8 8 7 4 3 2 2 5 5 5 4 5 7 10 11 14 16 14 11
21 9 5 -14 -2 18 -24 6 -11 -2 -5 -11 -0 7 15 -8 29 19 26 4 8 3 5 6 7 6 9 7 8 7 9 7 5 3 3 3 5 4 4 2 3 5 10 9 14 16 15 10 9
-12 24 27 -5 15 5 20 0 -3 22 20 18 21 -5 18 14 19 17 14 15 11 6 10 10 7 7 9 8 8 7 8 5 4 3 4 5 4 5 2 1 6 9 9 14 17 16 11 9 11
16 6 -17 9 -31 -1 9 37 50 28 0 6 37 16 15 16 20 8 11 13 11 11 10 11 8 8 9 6 5 9 7 5 5 5 6 4 4 3 0 6 10 9 13 17 15 11 10 13 12
14 1 10 -22 41 27 -29 5 -35 -9 0 3 -6 -2 21 14 8 10 15 19 16 14 11 10 10 8 9 8 7 6 6 6 5 5 4 4 3 2 6 11 8 12 17 15 12 10 11 6 4
Height
3171 3171 3173 3175 3183 3179 3178 3181 3180 3183 3183 3184 3185 3187 3189 3187 3187 3190 3186 3186 3186 3186 3186 3187 3187 3188 3189 3189 3190 3191 3192 3193 3193 3194 3194 3193 3194 3194 3193 3194 3194 3193 3192 3192 3192 3191 3190 3189 3188
3170 3171 3173 3174 3179 3175 3177 3179 3181 3182 3182 3183 3185 3186 3187 3187 3185 3185 3185 3185 3186 3186 3186 3187 3188 3188 3189 3190 3191 3192 3193 3194 3195 3195 3195 3195 3195 3195 3195 3194 3194 3193 3193 3192 3192 3191 3190 3189 3188
3169 3171 3174 3177 3176 3173 3176 3179 3180 3180 3181 3183 3186 3186 3186 3187 3186 3185 3185 3185 3185 3186 3186 3187 3188 3189 3190 3191 3192 3193 3194 3195 3196 3196 3196 3196 3195 3195 3195 3195 3194 3194 3193 3193 3192 3191 3190 3189 3188
3170 3172 3175 3176 3175 3176 3178 3179 3178 3180 3181 3183 3185 3187 3186 3186 3186 3186 3186 3185 3186 3186 3187 3187 3188 3189 3190 3192 3192 3194 3195 3196 3197 3196 3196 3196 3196 3196 3196 3195 3195 3194 3193 3192 3192 3192 3191 3191 3189
3170 3172 3175 3175 3176 3176 3175 3176 3178 3182 3182 3183 3184 3185 3185 3186 3186 3186 3186 3186 3186 3186 3186 3187 3188 3189 3191 3192 3193 3194 3196 3196 3197 3197 3197 3196 3196 3195 3195 3194 3194 3194 3193 3193 3192 3191 3191 3190 3190
3172 3171 3174 3173 3175 3175 3175 3176 3178 3182 3182 3183 3184 3184 3185 3185 3186 3186 3186 3186 3186 3186 3186 3186 3187 3189 3190 3192 3193 3194 3195 3196 3196 3196 3197 3196 3196 3195 3195 3194 3193 3193 3192 3191 3190 3190 3189 3189 3188
3172 3172 3172 3172 3173 3175 3175 3175 3178 3181 3181 3182 3183 3185 3184 3184 3185 3185 3185 3186 3186 3186 3186 3186 3186 3188 3189 3190 3192 3193 3195 3195 3195 3196 3195 3195 3194 3193 3193 3192 3192 3191 3190 3189 3188 3188 3188 3187 3187
3169 3170 3171 3171 3172 3173 3172 3174 3176 3178 3180 3179 3181 3184 3184 3182 3184 3185 3185 3185 3185 3186 3186 3186 3186 3187 3188 3189 3191 3192 3194 3194 3194 3194 3194 3193 3192 3191 3190 3190 3190 3189 3189 3188 3187 3186 3185 3186 3186
3167 3171 3168 3170 3171 3171 3171 3172 3174 3175 3177 3178 3179 3181 3182 3181 3182 3183 3184 3184 3184 3185 3186 3186 3186 3187 3188 3188 3189 3189 3190 3191 3191 3191 3191 3190 3189 3189 3189 3188 3188 3188 3187 3187 3186 3185 3184 3183 3183
3167 3169 3168 3167 3168 3169 3169 3170 3171 3174 3175 3177 3178 3179 3180 3180 3181 3182 3183 3183 3184 3184 3184 3184 3185 3186 3186 3186 3186 3187 3187 3188 3188 3189 3188 3187 3188 3188 3187 3187 3186 3185 3185 3185 3184 3184 3183 3182 3181
3163 3167 3166 3165 3166 3167 3167 3169 3169 3172 3173 3175 3176 3176 3178 3179 3180 3181 3181 3182 3182 3182 3182 3182 3183 3183 3183 3184 3184 3185 3185 3186 3185 3185 3185 3185 3185 3185 3185 3184 3184 3183 3183 3182 3182 3182 3182 3181 3180
3162 3161 3163 3164 3163 3165 3167 3166 3168 3169 3174 3171 3171 3172 3174 3176 3177 3178 3179 3179 3179 3180 3181 3180 3180 3180 3181 3181 3182 3182 3182 3183 3183 3182 3182 3181 3182 3183 3182 3182 3181 3181 3180 3180 3180 3179 3178 3178 3177
3158 3159 3160 3161 3160 3161 3163 3164 3165 3166 3167 3167 3168 3169 3171 3173 3174 3175 3176 3176 3176 3177 3178 3178 3177 3178 3178 3178 3178 3179 3179 3180 3180 3179 3179 3179 3179 3179 3179 3179 3178 3178 3177 3177 3177 3176 3175 3173 3173
3154 3155 3156 3157 3159 3158 3159 3160 3160 3162 3163 3164 3165 3166 3167 3169 3171 3171 3172 3172 3173 3173 3173 3174 3174 3174 3174 3174 3174 3175 3176 3176 3176 3176 3175 3175 3174 3175 3176 3176 3175 3175 3175 3174 3174 3174 3172 3171 3170
3151 3152 3152 3152 3153 3155 3156 3155 3153 3156 3158 3160 3161 3162 3163 3164 3165 3166 3168 3168 3169 3169 3169 3170 3170 3169 3169 3170 3171 3171 3171 3171 3171 3171 3171 3171 3171 3172 3172 3172 3172 3172 3171 3171 3170 3169 3168 3167 3166
3148 3148 3149 3149 3149 3150 3152 3150 3152 3151 3152 3151 3155 3156 3158 3158 3159 3160 3162 3163 3163 3164 3165 3165 3165 3164 3165 3166 3166 3167 3167 3167 3167 3167 3167 3167 3167 3168 3168 3168 3168 3167 3166 3166 3166 3165 3164 3162 3161
3142 3141 3143 3147 3144 3146 3147 3147 3147 3145 3146 3146 3148 3151 3152 3153 3152 3154 3155 3156 3157 3158 3160 3160 3160 3160 3161 3162 3162 3163 3163 3162 3162 3162 3163 3163 3163 3164 3163 3163 3163 3163 3162 3162 3161 3160 3159 3157 3155
3137 3134 3137 3140 3142 3138 3141 3141 3143 3140 3140 3140 3141 3141 3142 3144 3145 3147 3148 3150 3151 3152 3154 3155 3156 3156 3157 3157 3158 3159 3159 3158 3158 3158 3158 3158 3159 3159 3159 3159 3159 3158 3157 3157 3155 3154 3153 3150 3146
3134 3132 3131 3135 3136 3134 3134 3136 3136 3138 3136 3134 3135 3134 3134 3134 3138 3137 3140 3142 3144 3146 3147 3149 3151 3152 3152 3153 3153 3155 3155 3155 3154 3154 3154 3154 3155 3155 3156 3155 3155 3154 3153 3152 3151 3149 3146 3143 3137
3127 3126 3125 3129 3133 3128 3127 3126 3129 3129 3128 3127 3127 3126 3125 3126 3128 3128 3131 3133 3136 3138 3140 3143 3146 3147 3147 3147 3149 3150 3150 3150 3150 3150 3150 3151 3151 3151 3151 3151 3150 3150 3148 3147 3144 3142 3139 3133 3129
3120 3118 3123 3124 3127 3122 3121 3114 3118 3119 3119 3118 3118 3119 3118 3118 3119 3120 3122 3125 3127 3130 3133 3136 3139 3141 3142 3142 3144 3145 3146 3146 3146 3146 3146 3147 3147 3147 3146 3146 3145 3145 3142 3139 3137 3134 3130 3126 3120
3112 3115 3118 3119 3122 3112 3116 3097 3107 3110 3109 3108 3108 3109 3110 3110 3111 3113 3113 3116 3119 3122 3126 3129 3131 3134 3135 3137 3139 3140 3141 3141 3140 3141 3142 3143 3142 3141 3140 3140 3139 3138 3136 3133 3129 3126 3122 3114 3110
3099 3114 3113 3114 3113 3112 3103 3103 3095 3100 3097 3099 3100 3101 3100 3100 3102 3106 3107 3110 3112 3114 3118 3120 3123 3126 3128 3131 3133 3133 3134 3135 3136 3136 3136 3136 3136 3136 3136 3134 3133 3132 3129 3125 3123 3117 3111 3106 3102
3103 3107 3109 3109 3110 3099 3095 3101 3064 3084 3086 3089 3091 3092 3091 3092 3094 3098 3101 3103 3104 3106 3109 3113 3116 3118 3121 3123 3125 3126 3127 3129 3130 3129 3129 3129 3130 3130 3130 3129 3127 3124 3121 3117 3111 3106 3101 3095 3089
3094 3098 3102 3099 3097 3075 3087 3087 3051 3073 3078 3080 3081 3084 3083 3083 3083 3087 3089 3092 3095 3098 3101 3104 3107 3110 3112 3115 3117 3119 3120 3121 3122 3123 3123 3123 3124 3124 3123 3121 3119 3116 3111 3104 3099 3095 3090 3084 3080
3081 3085 3086 3083 3078 3068 3076 3058 3059 3065 3068 3070 3071 3074 3077 3073 3073 3076 3080 3084 3087 3090 3093 3096 3098 3101 3104 3106 3109 3111 3113 3115 3116 3117 3118 3119 3118 3117 3116 3113 3110 3105 3098 3094 3090 3086 3081 3077 3073
3071 3073 3067 3082 3077 3076 3056 3049 3054 3057 3060 3063 3063 3064 3065 3064 3064 3067 3070 3074 3076 3080 3084 3087 3090 3093 3096 3099 3102 3104 3106 3108 3110 3111 3112 3111 3110 3109 3107 3104 3100 3093 3089 3086 3082 3078 3073 3069 3066
3055 3062 3071 3074 3068 3062 3034 3039 3038 3049 3050 3053 3054 3056 3056 3054 3056 3059 3062 3064 3068 3072 3076 3079 3083 3086 3090 3093 3095 3097 3099 3101 3103 3104 3104 3104 3103 3101 3099 3095 3090 3085 3082 3078 3074 3069 3065 3061 3059
3048 3051 3055 3058 3057 3047 3030 3020 3035 3041 3041 3045 3048 3049 3048 3047 3050 3053 3055 3057 3060 3063 3067 3070 3074 3078 3081 3085 3088 3091 3093 3094 3096 3097 3096 3096 3094 3092 3090 3085 3080 3077 3074 3069 3065 3060 3058 3055 3052
3035 3032 3033 3037 3034 3038 3038 2997 3030 3034 3037 3039 3042 3042 3041 3042 3045 3047 3047 3048 3051 3055 3058 3062 3065 3070 3074 3077 3080 3083 3085 3087 3088 3089 3088 3086 3084 3082 3079 3075 3073 3069 3065 3060 3057 3054 3051 3049 3045